This demonstration page uses our WeatherBlox Daily Observations layout. Learn more.

Left ArrowRight Arrow

Hourly Observations for September 20, 2021

Temp ( °F °C ) Dew Point ( °F °C ) Humidity (%) Winds ( mph kmh ) Pressure ( in mb ) Visibility ( mi km ) Precip ( " mm )
12:54 am 00:54 Clear 75 23.9 66 18.9 74 74 SSE 18 30 29.69 1006 10 16 N/A
1:54 am 01:54 Clear 75 23.9 65 18.3 71 71 S 20 31 29.67 1005 10 16 N/A
2:38 am 02:38 Clear with Nearby Thunderstorms 74 23.3 66 18.9 76 76 SSE 14 22 29.65 1004 10 16 0.00 0.00
2:54 am 02:54 Mostly Clear 75 23.9 65 18.3 71 71 SSE 16 26 29.65 1004 10 16 0.00 0.00
3:54 am 03:54 Clear 75 23.9 66 18.9 74 74 S 17 28 29.62 1003 10 16 N/A
4:37 am 04:37 Mostly Clear with Nearby Thunderstorms 74 23.3 66 18.9 76 76 S 17 28 29.62 1003 10 16 0.00 0.00
4:54 am 04:54 Mostly Cloudy with Thunderstorms 73 22.8 67 19.4 81 81 S 18 30 29.61 1003 9 14 0.02 0.51
5:17 am 05:17 Mostly Clear with Nearby Thunderstorms 73 22.8 67 19.4 81 81 SSE 15 24 29.61 1003 10 16 0.00 0.00
5:32 am 05:32 Clear 73 22.8 66 18.9 79 79 SSE 17 28 29.60 1002 10 16 0.00 0.00
5:54 am 05:54 Clear 73 22.8 66 18.9 79 79 SSE 18 30 29.59 1002 10 16 0.00 0.00
6:54 am 06:54 Clear 73 22.8 66 18.9 79 79 WSW 7 11 29.65 1004 10 16 0.00 0.00
7:54 am 07:54 Sunny 69 20.6 66 18.9 90 90 ENE 3 6 29.67 1005 10 16 0.00 0.00
8:54 am 08:54 Partly Cloudy 75 23.9 68 20 79 79 N N/A 29.68 1005 10 16 N/A
9:54 am 09:54 Cloudy 74 23.3 65 18.3 74 74 NW 10 17 29.71 1006 10 16 N/A
10:54 am 10:54 Cloudy 69 20.6 59 15 70 70 NW 18 30 29.75 1008 10 16 N/A
11:54 am 11:54 Cloudy 70 21.1 57 13.9 64 64 NNW 16 26 29.78 1008 10 16 N/A
12:54 pm 12:54 Cloudy 72 22.2 54 12.2 53 53 N 8 13 29.77 1008 10 16 N/A
1:54 pm 13:54 Cloudy 74 23.3 54 12.2 50 50 NW 15 24 29.80 1009 10 16 N/A
2:54 pm 14:54 Mostly Sunny 73 22.8 53 11.7 50 50 NW 20 31 29.83 1010 10 16 N/A
3:54 pm 15:54 Partly Cloudy 71 21.7 53 11.7 53 53 NNW 21 33 29.87 1012 10 16 N/A
4:54 pm 16:54 Sunny 72 22.2 53 11.7 52 52 NNW 18 30 29.88 1012 10 16 N/A
5:54 pm 17:54 Mostly Sunny 72 22.2 53 11.7 52 52 NNW 21 33 29.89 1012 10 16 N/A
6:54 pm 18:54 Sunny 69 20.6 50 10 51 51 NW 17 28 29.93 1014 10 16 N/A
7:54 pm 19:54 Clear 66 18.9 49 9.4 54 54 NNW 12 19 29.97 1015 10 16 N/A
8:54 pm 20:54 Clear 63 17.2 48 8.9 58 58 NNW 12 19 30.01 1016 10 16 N/A
9:54 pm 21:54 Clear 60 15.6 49 9.4 67 67 NNW 7 11 30.05 1018 10 16 N/A
10:54 pm 22:54 Clear 59 15 49 9.4 69 69 NW 7 11 30.07 1018 10 16 N/A
11:54 pm 23:54 Clear 58 14.4 48 8.9 70 70 NW 6 9 30.10 1019 10 16 N/A

Powered by AerisWeather